This is the latest recevied weather packets stored in our database for station/object N3MFL. If no packets are shown the sender has not sent any weather packets the latest 10 day(s).
| Time | Temp. | Humidity | Pressure | Rain* | Wind** | Luminosity | Snow |
|---|---|---|---|---|---|---|---|
| 1777868356 | 2.78° C | 76% | 1012.2 hPa | 0 mm | - | 0 W/m² | - |
| 1777868052 | 2.78° C | 74% | 1012 hPa | 0 mm | - | 0 W/m² | - |
| 1777867748 | 2.78° C | 72% | 1012.1 hPa | 0 mm | - | 0 W/m² | - |
| 1777867446 | 2.78° C | 74% | 1012 hPa | 0 mm | - | 0 W/m² | - |
| 1777867141 | 2.22° C | 78% | 1012 hPa | 0 mm | - | 0 W/m² | - |
| 1777866839 | 2.22° C | 76% | 1012 hPa | 0 mm | - | 0 W/m² | - |
| 1777866535 | 2.22° C | 77% | 1011.8 hPa | 0 mm | - | 0 W/m² | - |
| 1777866233 | 2.22° C | 76% | 1011.8 hPa | 0 mm | - | 0 W/m² | - |
| 1777865930 | 2.22° C | 75% | 1011.8 hPa | 0 mm | - | 0 W/m² | - |
| 1777865628 | 1.67° C | 76% | 1011.6 hPa | 0 mm | - | 0 W/m² | - |
| 1777865324 | 1.67° C | 80% | 1011.7 hPa | 0 mm | - | 0 W/m² | - |
| 1777865022 | 1.11° C | 81% | 1011.6 hPa | 0 mm | - | 0 W/m² | - |
| 1777864718 | 1.11° C | 82% | 1011.7 hPa | 0 mm | - | 0 W/m² | - |
| 1777864416 | 1.11° C | 82% | 1011.6 hPa | 0 mm | - | 0 W/m² | - |
| 1777864112 | 1.11° C | 81% | 1011.5 hPa | 0 mm | - | 0 W/m² | - |
| 1777863809 | 1.11° C | 79% | 1011.4 hPa | 0 mm | - | 0 W/m² | - |
| 1777863505 | 1.67° C | 78% | 1011.5 hPa | 0 mm | - | 0 W/m² | - |
| 1777863203 | 1.67° C | 78% | 1011.5 hPa | 0 mm | - | 0 W/m² | - |
| 1777862899 | 1.67° C | 77% | 1011.5 hPa | 0 mm | - | 0 W/m² | - |
| 1777862596 | 1.67° C | 78% | 1011.7 hPa | 0 mm | - | 0 W/m² | - |
| 1777862292 | 1.67° C | 78% | 1011.4 hPa | 0 mm | - | 0 W/m² | - |
| 1777861989 | 1.67° C | 78% | 1011.5 hPa | 0 mm | - | 0 W/m² | - |
| 1777861685 | 1.67° C | 78% | 1011.4 hPa | 0 mm | - | 0 W/m² | - |
| 1777861382 | 1.67° C | 78% | 1011.6 hPa | 0 mm | - | 0 W/m² | - |
| 1777861078 | 2.22° C | 78% | 1011.6 hPa | 0 mm | - | 0 W/m² | - |
* Rain latest hour (hover to see other rain measurements)
** Current wind speed in m/s (hover to see current wind gust speed)